Location: Apeadero de Los Molinos-Guadarrama
(40.7091°N, 4.0689°W)
Time: 13:37:19
(UTC+00:00)

Cosmos 44 - Pass Details

Date: 14 May 2021
Orbit: 571 x 791 km, 65.1° (Epoch: 18 June)

Event Time Altitude Azimuth Distance (km) Brightness Sun altitude
Rises 21:53:02 0° 331° (NNW) 3,290 8.3 -22.2°
Reaches altitude 10° 21:55:34 10° 336° (NNW) 2,348 7.1 -22.5°
Maximum altitude 22:00:53 55° 54° (NE) 923 3.8 -23.0°
Enters shadow 22:01:55 46° 94° (E) 1,010 3.8 -23.1°
